Regional Weather Roundup
Issued by NWS Wakefield, VA

Home | Current Version | Previous Version | Graphics & Text | Print | Product List | Glossary On
Versions: 1 2 3 4 5 6 7 8 9 10 11 12 13 14 15 16 17 18 19 20 21 22 23 24 25 26 27
000
ASUS41 KAKQ 271715
RWRAKQ

REGIONAL WEATHER ROUNDUP
NATIONAL WEATHER SERVICE WAKEFIELD VA
100 PM EDT FRI MAY 27 2016

Note: "fair" indicates few or no clouds below 12,000 feet with no
significant weather and/or obstructions to visibility. * = Denotes
station may not report precipitation (e.g., rain,snow,etc.),
thunder or fog.

VAZ042-051-052>054-056-271800-
NORTHERN VIRGINIA

CITY           SKY/WX    TMP DP  RH WIND       PRES   REMARKS
WASH NATIONAL  PTSUNNY   85  68  56 S8        30.08S
DULLES         FAIR      87  65  47 SW6       30.07F
FORT BELVOIR   FAIR      85  68  56 VRB3      30.08S
QUANTICO       FAIR      81  70  69 S5        30.09F
FREDERICKSBRG* FAIR      88  69  53 SW7       30.07S
STAFFORD*      FAIR      85  66  53 SW7       30.12S
WARRENTON      FAIR      88  63  42 SE5       30.08S
CULPEPER*      FAIR      87  68  51 CALM      30.08F
MANASSAS*      SUNNY     86  64  48 S3        30.07F
LEESBURG*      FAIR      88  68  51 S3        30.08S
WINCHESTER     FAIR      86  63  45 S5        30.08F
FRONT ROYAL*   FAIR      86  68  54 S3        30.08S
LURAY*         FAIR      86  66  51 SW8       30.09F
$$

VAZ048-049-060>072-079>083-271800-
CENTRAL AND SOUTH CENTRAL VIRGINIA

CITY           SKY/WX    TMP DP  RH WIND       PRES   REMARKS
RICHMOND       FAIR      84  67  56 S14       30.10F
CHESTERFIELD*  FAIR      84  63  48 SW10      30.12F
PETERSBURG*    FAIR      86  65  49 SW7       30.12S
HANOVER        FAIR      86  66  51 SW7       30.11F
TAPPAHANNOCK*  FAIR      86  66  51 S7        30.10F
QUINTON*       FAIR      83  67  58 S7        30.10F
CHARLOTTSVILLE FAIR      85  67  54 S7        30.09F
GORDONSVILLE*  FAIR      85  69  60 SW5       30.08F
ORANGE*        FAIR      86  66  51 NE5       30.10F
LOUISA*        FAIR      88  72  58 CALM      30.09S
BUMPASS*       FAIR      84  70  61 S3        30.10S
FARMVILLE*     FAIR      85  67  54 S9        30.09F
CREWE*         FAIR      84  69  61 S5        30.11F
FORT PICKETT*  NOT AVBL
CHASE CITY*    FAIR      84  64  51 S6        30.12F
CLARKSVILLE*   FAIR      82  66  57 S3        30.12F
SOUTH HILL*    FAIR      82  67  59 SW8       30.18F
LAWRENCEVILLE* FAIR      83  66  56 S8        30.13F
EMPORIA*       FAIR      82  64  54 SE7       30.14F
$$

VAZ088>098-271800-
SOUTHEAST VIRGINIA

CITY           SKY/WX    TMP DP  RH WIND       PRES   REMARKS
NORFOLK        FAIR      85  63  47 S10       30.13F
VIRGINIA BEACH FAIR      87  63  44 S12G18    30.13F
NORFOLK NAVAL  FAIR      86  63  45 SW7       30.14F
WEST POINT*    FAIR      84  65  53 S9        30.12F
SALUDA*        FAIR      83  70  62 S9        30.10F
NEWPORT NEWS   FAIR      83  65  54 S12       30.12F
LANGLEY AFB    FAIR      84  65  53 S14       30.12F
FORT EUSTIS    FAIR      83  71  65 S9        30.11F
WILLIAMSBURG*  FAIR      88  66  48 S8        30.13S
HR EXEC AP*    FAIR      86  64  48 SW8       30.15F
FRANKLIN*      FAIR      84  65  52 S9        30.14F
US460-WAKEFLD  FAIR      84  64  50 VRB6      30.12F
$$

VAZ020-022-025-037-045-271800-
WEST CENTRAL AND SOUTHWEST VIRGINIA

CITY           SKY/WX    TMP DP  RH WIND       PRES   REMARKS
STAUNTON*      FAIR      84  62  48 S6        30.12F
WAYNESBORO*    FAIR      82  63  52 SW6       30.12F
HOT SPRINGS VA FAIR      74  60  61 S5        30.23F
LYNCHBURG      FAIR      83  65  54 S10       30.12F
DANVILLE       FAIR      82  67  60 SW8       30.12F
SOUTH BOSTON*  FAIR      83  68  59 S7        30.11F
MARTINSVILLE   FAIR      82  65  58 S5        30.15F
ROANOKE        FAIR      84  62  47 VRB5      30.13F
BLACKSBURG     FAIR      80  61  52 CALM      30.20S
DUBLIN*        FAIR      83  61  46 CALM      30.18S
MARION*        CLOUDY    77  62  59 CALM      30.20F
HILLSVILLE*    PTSUNNY   78  62  58 S3        30.18F
RICHLANDS*     PTSUNNY   77  69  75 CALM      30.19F
WISE*          CLOUDY    77  55  47 CALM      30.19F
ABINGDON*      CLOUDY    82  60  47 CALM      30.16F
$$

MDZ021>025-VAZ099-100-271800-
SOUTHERN MARYLAND AND THE DELMARVA PENINSULA

CITY           SKY/WX    TMP DP  RH WIND       PRES   REMARKS
PATUXENT RIVER MOSUNNY   78  66  66 SE12      30.08F
BAY BRIDGE APT SUNNY     82  68  61 SE13      30.07F
LEONARDTOWN    SUNNY     82  64  54 W5        30.10F
DOVER          MOSUNNY   86  72  62 SW8       30.06F
GEORGETOWN     SUNNY     87  66  49 SW9       30.09F
EASTON         SUNNY     84  73  70 SW7       30.12F
CAMBRIDGE      SUNNY     81  66  61 SE12      30.09S
SALISBURY      SUNNY     84  68  58 S10       30.10S
OCEAN CITY     SUNNY     72  64  76 S10G20    30.12S
WALLOPS ISLAND PTSUNNY   76  66  71 S17       30.13S
ACCOMACK*      FAIR      82  63  51 S15       30.12F
$$

NCZ012>017-030>032-271800-
NORTH CENTRAL AND EASTERN NORTH CAROLINA

CITY           SKY/WX    TMP DP  RH WIND       PRES   REMARKS
ROANOKE RAPIDS FAIR      82  64  54 SW12      30.13F
RALEIGH        MOSUNNY   84  64  50 SW8       30.14F
ELIZABETH CITY SUNNY     83  64  52 VRB6      30.16F
AHOSKIE*       SUNNY     82  62  51 S5        30.14F
EDENTON*       PTSUNNY   83  64  51 SW3       30.17F
CURRITUCK*     SUNNY     83  59  43 S7        30.17F
KILL DEVIL HLS SUNNY     84  57  39 S7        30.17S
MANTEO         NOT AVBL
CAPE HATTERAS  SUNNY     82  61  48 SE6       30.19S
TARBORO*       FAIR      85  64  48 SE8       30.15F
GOLDSBORO      MOSUNNY   85  63  47 VRB2      30.13F
WASHINGTON     SUNNY     82  60  47 S6        30.16F
GREENVILLE     SUNNY     84  63  48 SE8       30.16F
NEW BERN       SUNNY     82  60  47 E10       30.17F
WILMINGTON     SUNNY     80  59  48 E12G17    30.16F
$$

VAZ048-271800-
ELSEWHERE

CITY           SKY/WX    TMP DP  RH WIND       PRES   REMARKS
HARRISBURG PA  PTSUNNY   85  67  54 SE5       30.04F
BALTIMORE      PTSUNNY   88  66  48 S5        30.06S
ANNAPOLIS      SUNNY     77  68  73 SE13      30.07S
ANDREWS AFB    FAIR      87  67  52 S8        30.07F
PHILADELPHIA   MOSUNNY   86  66  51 S9        30.06F
HENDERSON NC   SUNNY     80  61  52 SW8       30.13F
GREENSBORO     MOSUNNY   82  63  52 SW10      30.13F
ROCKY MOUNT    SUNNY     84  63  49 VRB5      30.15F
$$

VAZ100-271800-
MARINE

STATION/POSITION TIME  TEMP    WIND        PRES    WAVE   SWELL
                       AIR SEA DIR/SP/G            HT/PER HT/PER
                 (UTC) (F)     (DEG/KT/KT) (MB)    (FT/S) (FT/S)
BRANDYWINE LGT   1600   67     160/ 11/ 12 1019.1S
CAPE MAY NJ      1600   73 67  170/  7/  9 1019.1R
LEWES DE         1600   85 62  250/  5/ 10 1018.9F
15NM E FENWICK I 1650   64 61              1019.6F   3/ 5
OCEAN-CITY-INLET 1600   63 60  210/ 14/ 17 1020.5R
WACHAPREAGUE VA  1600   77 74  200/ 14/ 17 1019.9F
THOMAS POINT MD  1700   73 66  160/ 13/ 14 1019.7F
GOOSES REEF MD   1700   72 67  160/ 12/ 14 1019.7F   1/ 2
COVE POINT MD    1600   68     170/ 11/ 13 1019.9R
SOLOMONS ISLAND  1600   71 64   80/ 11/ 12   N/A
BISHOPS HEAD MD  1600   70 74  150/ 13/ 15 1019.7F
PINEY POINT MD   1606          110/  5/  5   N/A
POTOMAC MD       1700   72 73  140/ 10/ 12 1018.0F   1/ 3
CAMBRIDGE MD     1600   81 66  180/  6/ 10 1018.3R
LEWISETTA VA     1600   77 67   90/  3/  4 1018.9R
RAPPAHANNOCK LGT 1600          170/ 14/ 15 1020.8F
STINGRAY PT      1700   73 71  170/ 12/ 14 1020.0F   1/ 3
YORK RVR RNG VA  1600   75     200/ 12/ 12 1019.8F
YORKTOWN VA      1600   80 67  210/ 11/ 13 1019.9F
JAMESTOWN VA     1700   81 73  190/  8/ 12   N/A
DOMINION TERM VA 1600   77     220/  8/  9 1020.8R
KIPTOPEKE VA     1600      69  200/  5/  7   N/A
CHES BAY BRIDGE  1600   80 68  180/ 10/ 12 1020.8R
CAPE HENRY VA    1600   81     210/  8/ 11   N/A
CHESAPEAKE LGHT  1600   69     170/ 16/ 17 1021.9R
WILLOUBY STN VA  1600   76     240/  6/  7 1021.8R
CAPE HENRY BUOY  1612      68                N/A     2/ 8
1ST LANDING BUOY 1700   72 70  130/ 10/ 12 1020.2F   1/ 3
CAPE CHARLES BUO 1626      66                N/A     2/ 3   2/ 8
OFFSHORE WE BUOY 1621      65                N/A     2/ 7   2/ 7
64NM E OF VA BCH 1650   66 61  180/  4/  6 1022.4R   2/ 7   2/ 7
DUCK PIER NC     1600   71 61  130/  8/  9 1021.4R
44100 DUCK FRF   1624      67                N/A     2/ 8
44056 DUCK FRF   1611      65                N/A     1/ 8
OREGON INLET NC  1600   76 74  180/  9/ 10 1022.2R
HATTERAS NC      1600   76 72  140/  5/  6 1021.8F
DIAMOND SHLS NC  1650   77 82  130/ 10/ 12 1022.1F   2/ 8   2/ 8
CAPE LOOKOUC1F1C2F2C3F3C4F4C5F5C6F6C7F7C8M1C9!



USA.gov is the U.S. government's official web portal to all federal, state and local government web resources and services.